When you browse on this site, cookies collect data to enhance your experience and personalize the content and advertising you see.
Visit our Privacy Policy to learn more. By continuing to use the site, you agree to this use of cookies and data.
  • Em Portugal
  • Lista de países
  • Para 7 dias
  • Temperatura da água
  • Mapa do tempo
  • Widgets de tempo
  • user-avatar
    Iniciar Sessão

    Previsão horária em Oran

    Hoje, 29 Janeiro, Quarta-feira

    Tempo Temperatura Precipitação Vento Pressão Humidade
    00:00 +13°C° 0 mm 2 m/s 758 mmHg 64%
    01:00 +11°C° 0 mm 3 m/s 758 mmHg 64%
    02:00 +11°C° 0 mm 3 m/s 757 mmHg 65%
    03:00 +11°C° 0 mm 3 m/s 757 mmHg 65%
    04:00 +12°C° 0 mm 2 m/s 757 mmHg 66%
    05:00 +10°C° 0 mm 2 m/s 757 mmHg 67%
    06:00 +10°C° 0 mm 2 m/s 757 mmHg 68%
    07:00 +13°C° 0 mm 2 m/s 758 mmHg 62%
    08:00 +15°C° 0 mm 2 m/s 758 mmHg 56%
    09:00 +17°C° 0 mm 2 m/s 758 mmHg 49%
    10:00 +18°C° 0 mm 2 m/s 758 mmHg 44%
    11:00 +19°C° 0 mm 2 m/s 758 mmHg 38%
    12:00 +21°C° 0 mm 2 m/s 758 mmHg 33%
    13:00 +20°C° 0 mm 2 m/s 758 mmHg 34%
    14:00 +20°C° 0 mm 2 m/s 757 mmHg 36%
    15:00 +20°C° 0 mm 2 m/s 756 mmHg 37%
    16:00 +18°C° 0 mm 2 m/s 757 mmHg 44%
    17:00 +16°C° 0 mm 2 m/s 757 mmHg 51%
    18:00 +14°C° 0 mm 1 m/s 757 mmHg 59%
    19:00 +14°C° 0 mm 1 m/s 758 mmHg 57%
    20:00 +14°C° 0 mm 1 m/s 758 mmHg 56%
    21:00 +14°C° 0 mm 2 m/s 758 mmHg 54%
    22:00 +14°C° 0 mm 2 m/s 758 mmHg 53%
    23:00 +13°C° 0 mm 2 m/s 758 mmHg 53%

    Amanhã, 30 Janeiro, Quinta-feira

    Tempo Temperatura Precipitação Vento Pressão Humidade
    00:00 +13°C° 0 mm 2 m/s 758 mmHg 52%
    01:00 +13°C° 0 mm 2 m/s 758 mmHg 52%
    02:00 +13°C° 0 mm 2 m/s 757 mmHg 51%
    03:00 +13°C° 0 mm 2 m/s 757 mmHg 51%
    04:00 +13°C° 0 mm 2 m/s 757 mmHg 51%
    05:00 +13°C° 0 mm 2 m/s 757 mmHg 50%
    06:00 +12°C° 0 mm 3 m/s 757 mmHg 49%
    07:00 +13°C° 0 mm 3 m/s 757 mmHg 48%
    08:00 +16°C° 0 mm 3 m/s 758 mmHg 47%
    09:00 +17°C° 0 mm 3 m/s 758 mmHg 46%
    10:00 +18°C° 0 mm 4 m/s 758 mmHg 41%
    11:00 +20°C° 0 mm 4 m/s 758 mmHg 37%
    12:00 +21°C° 0 mm 5 m/s 758 mmHg 32%
    13:00 +21°C° 0 mm 5 m/s 758 mmHg 34%
    14:00 +21°C° 0 mm 5 m/s 757 mmHg 36%
    15:00 +21°C° 0 mm 4 m/s 757 mmHg 37%
    16:00 +19°C° 0 mm 4 m/s 757 mmHg 45%
    17:00 +17°C° 0 mm 4 m/s 757 mmHg 52%
    18:00 +14°C° 0 mm 3 m/s 757 mmHg 59%
    19:00 +14°C° 0 mm 3 m/s 757 mmHg 58%
    20:00 +13°C° 0 mm 3 m/s 757 mmHg 57%
    21:00 +13°C° 0 mm 4 m/s 757 mmHg 57%
    22:00 +13°C° 0 mm 4 m/s 757 mmHg 54%
    23:00 +13°C° 0 mm 5 m/s 758 mmHg 52%

    Depois de amanhã, 31 Janeiro, Sexta-feira

    Tempo Temperatura Precipitação Vento Pressão Humidade
    00:00 +13°C° 0 mm 5 m/s 758 mmHg 50%
    01:00 +13°C° 0 mm 5 m/s 757 mmHg 49%
    02:00 +13°C° 0 mm 5 m/s 757 mmHg 48%
    03:00 +13°C° 0 mm 5 m/s 757 mmHg 47%
    04:00 +13°C° 0 mm 5 m/s 757 mmHg 48%
    05:00 +12°C° 0 mm 4 m/s 757 mmHg 48%
    06:00 +12°C° 0 mm 4 m/s 757 mmHg 49%
    07:00 +13°C° 0 mm 4 m/s 757 mmHg 49%
    08:00 +14°C° 0 mm 4 m/s 757 mmHg 50%
    09:00 +17°C° 0 mm 4 m/s 758 mmHg 50%
    10:00 +17°C° 0 mm 5 m/s 758 mmHg 46%
    11:00 +19°C° 0 mm 6 m/s 758 mmHg 43%
    12:00 +20°C° 0 mm 6 m/s 757 mmHg 39%
    13:00 +20°C° 0 mm 6 m/s 757 mmHg 41%
    14:00 +20°C° 0 mm 6 m/s 757 mmHg 43%
    15:00 +19°C° 0 mm 6 m/s 756 mmHg 46%
    16:00 +17°C° 0 mm 5 m/s 756 mmHg 53%
    17:00 +15°C° 0 mm 4 m/s 757 mmHg 60%
    18:00 +13°C° 0 mm 3 m/s 757 mmHg 68%
    19:00 +13°C° 0 mm 3 m/s 757 mmHg 67%
    20:00 +13°C° 0 mm 3 m/s 757 mmHg 66%
    21:00 +13°C° 0 mm 3 m/s 757 mmHg 65%
    22:00 +13°C° 0 mm 3 m/s 757 mmHg 63%
    23:00 +13°C° 0 mm 3 m/s 757 mmHg 60%

    1 Fevereiro, Sábado

    Tempo Temperatura Precipitação Vento Pressão Humidade
    00:00 +13°C° 0 mm 3 m/s 757 mmHg 57%
    01:00 +13°C° 0 mm 3 m/s 757 mmHg 57%
    02:00 +13°C° 0 mm 3 m/s 757 mmHg 56%
    03:00 +12°C° 0 mm 3 m/s 757 mmHg 55%
    04:00 +12°C° 0 mm 3 m/s 757 mmHg 55%
    05:00 +12°C° 0 mm 3 m/s 757 mmHg 55%
    06:00 +12°C° 0 mm 3 m/s 757 mmHg 55%
    07:00 +14°C° 0 mm 2 m/s 757 mmHg 52%
    08:00 +16°C° 0 mm 2 m/s 758 mmHg 49%
    09:00 +18°C° 0 mm 2 m/s 758 mmHg 47%
    10:00 +19°C° 0 mm 3 m/s 758 mmHg 44%
    11:00 +20°C° 0 mm 3 m/s 758 mmHg 40%
    12:00 +21°C° 0 mm 4 m/s 758 mmHg 37%
    13:00 +21°C° 0 mm 4 m/s 758 mmHg 38%
    14:00 +21°C° 0 mm 4 m/s 758 mmHg 40%
    15:00 +21°C° 0 mm 3 m/s 757 mmHg 41%
    16:00 +19°C° 0 mm 3 m/s 757 mmHg 46%
    17:00 +17°C° 0 mm 2 m/s 757 mmHg 51%
    18:00 +16°C° 0 mm 2 m/s 757 mmHg 56%
    19:00 +15°C° 0 mm 1 m/s 758 mmHg 55%
    20:00 +15°C° 0 mm 1 m/s 758 mmHg 55%
    21:00 +15°C° 0 mm 1 m/s 759 mmHg 54%
    22:00 +14°C° 0 mm 1 m/s 759 mmHg 55%
    23:00 +14°C° 0 mm 1 m/s 759 mmHg 56%

    2 Fevereiro, Domingo

    Tempo Temperatura Precipitação Vento Pressão Humidade
    00:00 +13°C° 0 mm 0 m/s 759 mmHg 57%
    01:00 +13°C° 0 mm 0 m/s 759 mmHg 58%
    02:00 +13°C° 0 mm 0 m/s 759 mmHg 59%
    03:00 +12°C° 0 mm 0 m/s 759 mmHg 61%
    04:00 +12°C° 0 mm 0 m/s 759 mmHg 64%
    05:00 +13°C° 0 mm 1 m/s 759 mmHg 68%
    06:00 +13°C° 0 mm 1 m/s 759 mmHg 71%
    07:00 +15°C° 0 mm 1 m/s 760 mmHg 64%
    08:00 +18°C° 0 mm 1 m/s 760 mmHg 57%
    09:00 +20°C° 0 mm 1 m/s 760 mmHg 51%
    10:00 +22°C° 0 mm 1 m/s 760 mmHg 47%
    11:00 +23°C° 0 mm 1 m/s 760 mmHg 44%
    12:00 +24°C° 0 mm 1 m/s 760 mmHg 41%
    13:00 +24°C° 0 mm 1 m/s 760 mmHg 40%
    14:00 +25°C° 0 mm 2 m/s 760 mmHg 39%
    15:00 +25°C° 0 mm 2 m/s 759 mmHg 38%
    16:00 +23°C° 0 mm 2 m/s 759 mmHg 44%
    17:00 +20°C° 0 mm 3 m/s 759 mmHg 50%
    18:00 +19°C° 0 mm 3 m/s 759 mmHg 56%
    19:00 +18°C° 0 mm 2 m/s 759 mmHg 59%
    20:00 +17°C° 0 mm 2 m/s 760 mmHg 62%
    21:00 +17°C° 0 mm 2 m/s 760 mmHg 65%
    22:00 +17°C° 0 mm 2 m/s 760 mmHg 65%
    23:00 +16°C° 0 mm 1 m/s 760 mmHg 66%

    3 Fevereiro, Segunda-feira

    Tempo Temperatura Precipitação Vento Pressão Humidade
    00:00 +16°C° 0 mm 1 m/s 760 mmHg 66%
    01:00 +16°C° 0 mm 1 m/s 759 mmHg 67%
    02:00 +16°C° 0 mm 1 m/s 759 mmHg 67%
    03:00 +15°C° 0 mm 1 m/s 759 mmHg 68%
    04:00 +15°C° 0 mm 1 m/s 759 mmHg 67%
    05:00 +15°C° 0 mm 1 m/s 759 mmHg 67%
    06:00 +15°C° 0 mm 1 m/s 759 mmHg 66%
    07:00 +16°C° 0 mm 1 m/s 759 mmHg 61%
    08:00 +19°C° 0 mm 1 m/s 759 mmHg 55%
    09:00 +21°C° 0 mm 1 m/s 760 mmHg 50%
    10:00 +22°C° 0 mm 1 m/s 760 mmHg 46%
    11:00 +24°C° 0 mm 1 m/s 759 mmHg 42%
    12:00 +25°C° 0 mm 1 m/s 759 mmHg 38%
    13:00 +25°C° 0 mm 1 m/s 759 mmHg 38%
    14:00 +25°C° 0 mm 1 m/s 758 mmHg 39%
    15:00 +25°C° 0 mm 1 m/s 758 mmHg 39%
    16:00 +23°C° 0 mm 1 m/s 758 mmHg 47%
    17:00 +21°C° 0 mm 1 m/s 758 mmHg 55%
    18:00 +18°C° 0 mm 1 m/s 758 mmHg 63%
    19:00 +18°C° 0 mm 1 m/s 758 mmHg 63%
    20:00 +16°C° 0 mm 1 m/s 759 mmHg 64%
    21:00 +16°C° 0 mm 1 m/s 759 mmHg 65%
    22:00 +16°C° 0 mm 1 m/s 759 mmHg 66%
    23:00 +15°C° 0 mm 2 m/s 759 mmHg 67%
    Mostrar mais